• Em Portugal
  • Lista de países
  • Para 7 dias
  • Temperatura da água
  • Mapas de satélite
  • Mapa do tempo
  • Widgets de tempo
  • user-avatar
    Iniciar Sessão

    Previsão horária em Florianópolis

    Hoje, 21 Setembro, Quinta-feira

    Tempo Temperatura Precipitação Vento Pressão Humidade
    00:00 +20°C° 0 mm 3 m/s 766 mmHg 94%
    01:00 +20°C° 0 mm 3 m/s 766 mmHg 94%
    02:00 +20°C° 0 mm 3 m/s 766 mmHg 93%
    03:00 +20°C° 0 mm 3 m/s 766 mmHg 93%
    04:00 +19°C° 0 mm 3 m/s 766 mmHg 93%
    05:00 +19°C° 0 mm 3 m/s 765 mmHg 93%
    06:00 +19°C° 0 mm 3 m/s 765 mmHg 93%
    07:00 +21°C° 0 mm 3 m/s 766 mmHg 82%
    08:00 +24°C° 0 mm 3 m/s 766 mmHg 72%
    09:00 +26°C° 0 mm 4 m/s 766 mmHg 62%
    10:00 +28°C° 0 mm 4 m/s 765 mmHg 56%
    11:00 +30°C° 0 mm 4 m/s 765 mmHg 49%
    12:00 +33°C° 0 mm 5 m/s 765 mmHg 42%
    13:00 +34°C° 0 mm 5 m/s 764 mmHg 42%
    14:00 +34°C° 0 mm 5 m/s 763 mmHg 42%
    15:00 +34°C° 0 mm 5 m/s 762 mmHg 42%
    16:00 +32°C° 0 mm 4 m/s 762 mmHg 54%
    17:00 +28°C° 0 mm 4 m/s 762 mmHg 65%
    18:00 +26°C° 0 mm 4 m/s 762 mmHg 76%
    19:00 +23°C° 0 mm 4 m/s 763 mmHg 83%
    20:00 +22°C° 0 mm 4 m/s 763 mmHg 89%
    21:00 +20°C° 0 mm 3 m/s 764 mmHg 96%
    22:00 +20°C° 0 mm 4 m/s 764 mmHg 95%
    23:00 +20°C° 0 mm 4 m/s 764 mmHg 95%

    Amanhã, 22 Setembro, Sexta-feira

    Tempo Temperatura Precipitação Vento Pressão Humidade
    00:00 +20°C° 0 mm 4 m/s 764 mmHg 95%
    01:00 +20°C° 0 mm 4 m/s 763 mmHg 94%
    02:00 +20°C° 0 mm 4 m/s 763 mmHg 93%
    03:00 +20°C° 0 mm 4 m/s 762 mmHg 93%
    04:00 +20°C° 0 mm 3 m/s 762 mmHg 92%
    05:00 +19°C° 0 mm 3 m/s 763 mmHg 92%
    06:00 +19°C° 0 mm 3 m/s 763 mmHg 91%
    07:00 +22°C° 0 mm 3 m/s 763 mmHg 80%
    08:00 +26°C° 0 mm 4 m/s 763 mmHg 69%
    09:00 +29°C° 0 mm 4 m/s 763 mmHg 57%
    10:00 +32°C° 0 mm 4 m/s 763 mmHg 50%
    11:00 +34°C° 0 mm 5 m/s 763 mmHg 44%
    12:00 +37°C° 0 mm 5 m/s 762 mmHg 37%
    13:00 +37°C° 0 mm 5 m/s 761 mmHg 37%
    14:00 +37°C° 0 mm 5 m/s 760 mmHg 37%
    15:00 +37°C° 0 mm 5 m/s 760 mmHg 37%
    16:00 +34°C° 0 mm 5 m/s 760 mmHg 48%
    17:00 +32°C° 0 mm 4 m/s 760 mmHg 59%
    18:00 +28°C° 0 mm 4 m/s 760 mmHg 70%
    19:00 +27°C° 0 mm 4 m/s 760 mmHg 76%
    20:00 +25°C° 0 mm 4 m/s 761 mmHg 83%
    21:00 +23°C° 0 mm 4 m/s 761 mmHg 89%
    22:00 +22°C° 0 mm 3 m/s 761 mmHg 89%
    23:00 +22°C° 0 mm 3 m/s 761 mmHg 89%

    Depois de amanhã, 23 Setembro, Sábado

    Tempo Temperatura Precipitação Vento Pressão Humidade
    00:00 +22°C° 0 mm 3 m/s 761 mmHg 90%
    01:00 +21°C° 0 mm 3 m/s 761 mmHg 90%
    02:00 +21°C° 0 mm 2 m/s 761 mmHg 90%
    03:00 +21°C° 0 mm 2 m/s 761 mmHg 91%
    04:00 +21°C° 0 mm 2 m/s 761 mmHg 92%
    05:00 +21°C° 0 mm 2 m/s 761 mmHg 93%
    06:00 +20°C° 0 mm 2 m/s 762 mmHg 94%
    07:00 +24°C° 0 mm 2 m/s 762 mmHg 84%
    08:00 +26°C° 0 mm 3 m/s 763 mmHg 74%
    09:00 +28°C° 0 mm 3 m/s 763 mmHg 65%
    10:00 +29°C° 0 mm 3 m/s 763 mmHg 60%
    11:00 +31°C° 0 mm 3 m/s 763 mmHg 55%
    12:00 +33°C° 0 mm 3 m/s 762 mmHg 50%
    13:00 +33°C° 0 mm 3 m/s 762 mmHg 51%
    14:00 +33°C° 0 mm 3 m/s 761 mmHg 53%
    15:00 +33°C° 0 mm 4 m/s 761 mmHg 54%
    16:00 +29°C° 0,8 mm 4 m/s 761 mmHg 68%
    17:00 +26°C° 0,8 mm 4 m/s 761 mmHg 81%
    18:00 +23°C° 0,8 mm 4 m/s 762 mmHg 95%
    19:00 +23°C° 2,4 mm 4 m/s 762 mmHg 96%
    20:00 +22°C° 2,4 mm 4 m/s 763 mmHg 97%
    21:00 +22°C° 2,4 mm 3 m/s 764 mmHg 99%
    22:00 +22°C° 1,3 mm 3 m/s 764 mmHg 99%
    23:00 +23°C° 1,3 mm 2 m/s 764 mmHg 98%

    24 Setembro, Domingo

    Tempo Temperatura Precipitação Vento Pressão Humidade
    00:00 +23°C° 1,3 mm 2 m/s 763 mmHg 98%
    01:00 +21°C° 0,6 mm 2 m/s 763 mmHg 98%
    02:00 +21°C° 0,6 mm 2 m/s 762 mmHg 98%
    03:00 +22°C° 0,6 mm 1 m/s 762 mmHg 99%
    04:00 +21°C° 0 mm 2 m/s 762 mmHg 99%
    05:00 +21°C° 0 mm 2 m/s 763 mmHg 99%
    06:00 +20°C° 0 mm 2 m/s 763 mmHg 99%
    07:00 +21°C° 0 mm 2 m/s 763 mmHg 97%
    08:00 +23°C° 0 mm 2 m/s 764 mmHg 96%
    09:00 +23°C° 0 mm 2 m/s 765 mmHg 94%
    10:00 +24°C° 0,1 mm 3 m/s 765 mmHg 91%
    11:00 +24°C° 0,1 mm 3 m/s 764 mmHg 87%
    12:00 +25°C° 0,1 mm 4 m/s 764 mmHg 83%
    13:00 +23°C° 0,1 mm 4 m/s 764 mmHg 87%
    14:00 +22°C° 0,1 mm 4 m/s 764 mmHg 90%
    15:00 +22°C° 0,1 mm 4 m/s 764 mmHg 93%
    16:00 +21°C° 0,1 mm 4 m/s 764 mmHg 94%
    17:00 +21°C° 0,1 mm 4 m/s 764 mmHg 94%
    18:00 +21°C° 0,1 mm 4 m/s 765 mmHg 95%
    19:00 +20°C° 0 mm 4 m/s 765 mmHg 96%
    20:00 +20°C° 0 mm 4 m/s 766 mmHg 96%
    21:00 +20°C° 0 mm 4 m/s 766 mmHg 97%
    22:00 +20°C° 0,1 mm 3 m/s 766 mmHg 97%
    23:00 +20°C° 0,1 mm 3 m/s 766 mmHg 97%

    25 Setembro, Segunda-feira

    Tempo Temperatura Precipitação Vento Pressão Humidade
    00:00 +20°C° 0,1 mm 3 m/s 766 mmHg 98%
    01:00 +19°C° 0,1 mm 3 m/s 766 mmHg 98%
    02:00 +19°C° 0,1 mm 3 m/s 766 mmHg 99%
    03:00 +19°C° 0,1 mm 3 m/s 766 mmHg 99%
    04:00 +19°C° 0,1 mm 3 m/s 766 mmHg 99%
    05:00 +19°C° 0,1 mm 3 m/s 766 mmHg 99%
    06:00 +19°C° 0,1 mm 3 m/s 766 mmHg 98%
    07:00 +20°C° 0,1 mm 2 m/s 767 mmHg 98%
    08:00 +20°C° 0,1 mm 2 m/s 767 mmHg 97%
    09:00 +20°C° 0,1 mm 2 m/s 767 mmHg 96%
    10:00 +23°C° 0 mm 2 m/s 767 mmHg 90%
    11:00 +24°C° 0 mm 2 m/s 767 mmHg 83%
    12:00 +25°C° 0 mm 3 m/s 766 mmHg 77%
    13:00 +25°C° 0,1 mm 3 m/s 766 mmHg 77%
    14:00 +26°C° 0,1 mm 3 m/s 765 mmHg 76%
    15:00 +26°C° 0,1 mm 3 m/s 765 mmHg 76%
    16:00 +25°C° 0,1 mm 3 m/s 765 mmHg 82%
    17:00 +24°C° 0,1 mm 3 m/s 765 mmHg 88%
    18:00 +23°C° 0,1 mm 2 m/s 765 mmHg 94%
    19:00 +21°C° 0,1 mm 2 m/s 765 mmHg 95%
    20:00 +21°C° 0,1 mm 2 m/s 765 mmHg 97%
    21:00 +22°C° 0,1 mm 1 m/s 766 mmHg 98%
    22:00 +21°C° 0 mm 1 m/s 765 mmHg 98%
    23:00 +21°C° 0 mm 1 m/s 765 mmHg 99%

    26 Setembro, Terça-feira

    Tempo Temperatura Precipitação Vento Pressão Humidade
    00:00 +21°C° 0 mm 1 m/s 765 mmHg 99%
    01:00 +20°C° 0 mm 2 m/s 764 mmHg 98%
    02:00 +19°C° 0 mm 2 m/s 764 mmHg 98%
    03:00 +19°C° 0 mm 2 m/s 764 mmHg 98%
    04:00 +20°C° 0 mm 2 m/s 764 mmHg 97%
    05:00 +20°C° 0 mm 3 m/s 764 mmHg 96%
    06:00 +20°C° 0 mm 3 m/s 764 mmHg 96%
    07:00 +21°C° 0 mm 3 m/s 764 mmHg 91%
    08:00 +24°C° 0 mm 3 m/s 764 mmHg 86%
    09:00 +25°C° 0 mm 3 m/s 764 mmHg 81%
    10:00 +26°C° 0 mm 4 m/s 764 mmHg 73%
    11:00 +28°C° 0 mm 4 m/s 763 mmHg 66%
    12:00 +30°C° 0 mm 5 m/s 763 mmHg 58%
    13:00 +30°C° 0 mm 5 m/s 762 mmHg 57%
    14:00 +32°C° 0 mm 5 m/s 762 mmHg 56%
    15:00 +33°C° 0 mm 4 m/s 761 mmHg 54%
    16:00 +30°C° 0 mm 4 m/s 761 mmHg 64%
    17:00 +28°C° 0 mm 4 m/s 761 mmHg 74%
    18:00 +26°C° 0 mm 4 m/s 761 mmHg 83%
    19:00 +23°C° 0 mm 4 m/s 762 mmHg 88%
    20:00 +22°C° 0 mm 3 m/s 762 mmHg 92%
    21:00 +21°C° 0 mm 3 m/s 763 mmHg 97%
    22:00 +21°C° 0 mm 3 m/s 762 mmHg 96%
    23:00 +21°C° 0 mm 3 m/s 762 mmHg 96%
    Mostrar mais